This is the latest recevied weather packets stored in our database for station/object OE5HCE. If no packets are shown the sender has not sent any weather packets the latest 10 day(s).
| Time | Temp. | Humidity | Pressure | Rain* | Wind** | Luminosity | Snow |
|---|---|---|---|---|---|---|---|
| 1777417266 | 11.67° C | 53% | 1020.7 hPa | 0 mm | - | 0 W/m² | - |
| 1777416356 | 12.22° C | 52% | 1020.6 hPa | 0 mm | - | 0 W/m² | - |
| 1777415455 | 12.22° C | 51% | 1020.5 hPa | 0 mm | - | 0 W/m² | - |
| 1777414553 | 12.22° C | 50% | 1020.3 hPa | 0 mm | - | 0 W/m² | - |
| 1777413656 | 12.22° C | 50% | 1020.3 hPa | 0 mm | - | 0 W/m² | - |
| 1777412746 | 12.78° C | 50% | 1020.2 hPa | 0 mm | - | 0 W/m² | - |
| 1777411846 | 12.78° C | 50% | 1020.3 hPa | 0 mm | - | 0 W/m² | - |
| 1777410948 | 12.78° C | 49% | 1020.1 hPa | 0 mm | - | 0 W/m² | - |
| 1777410046 | 12.78° C | 48% | 1020 hPa | 0 mm | - | 0 W/m² | - |
| 1777409144 | 13.33° C | 48% | 1020.1 hPa | 0 mm | - | 0 W/m² | - |
| 1777408256 | 13.33° C | 49% | 1019.9 hPa | 0 mm | - | 0 W/m² | - |
| 1777407344 | 13.33° C | 49% | 1019.9 hPa | 0 mm | - | 0 W/m² | - |
| 1777406444 | 13.89° C | 49% | 1019.9 hPa | 0 mm | - | 0 W/m² | - |
| 1777405552 | 13.33° C | 53% | 1019.8 hPa | 0 mm | - | 0 W/m² | - |
| 1777404644 | 13.33° C | 54% | 1019.6 hPa | 0 mm | - | 0 W/m² | - |
| 1777403747 | 13.89° C | 53% | 1019.4 hPa | 0 mm | - | 0 W/m² | - |
| 1777402849 | 13.89° C | 53% | 1019.3 hPa | 0 mm | - | 0 W/m² | - |
| 1777401947 | 14.44° C | 51% | 1019.2 hPa | 0 mm | - | 0 W/m² | - |
| 1777401040 | 14.44° C | 50% | 1019.1 hPa | 0 mm | - | 0 W/m² | - |
| 1777400140 | 15° C | 49% | 1019 hPa | 0 mm | - | 0 W/m² | - |
| 1777399239 | 15.56° C | 48% | 1018.8 hPa | 0 mm | - | 9 W/m² | - |
| 1777398341 | 16.11° C | 47% | 1018.7 hPa | 0 mm | - | 18 W/m² | - |
| 1777397438 | 16.11° C | 47% | 1018.6 hPa | 0 mm | - | 40 W/m² | - |
| 1777396559 | 16.67° C | 47% | 1018.4 hPa | 0 mm | - | 58 W/m² | - |
| 1777395638 | 17.22° C | 47% | 1018.3 hPa | 0 mm | - | 81 W/m² | - |
* Rain latest hour (hover to see other rain measurements)
** Current wind speed in m/s (hover to see current wind gust speed)